Location: Litvinovka
(48.6667°N, 34.3500°E)
Time: 01:25:41
(UTC+00:00)

Cosmos 2279 Rocket - Pass Details

Date: 18 September 2020
Orbit: 964 x 979 km, 82.9° (Epoch: 23 October)

Event Time Altitude Azimuth Distance (km) Brightness Sun altitude
Exits shadow 18:36:16 62° 90° (E) 1,096 3.9 -26.6°
Drops below altitude 10° 18:42:23 10° 15° (NNE) 2,742 6.6 -27.4°
Sets 18:44:56 0° 12° (NNE) 3,695 7.4 -27.7°
